EIN242 EIDW-LPFR

Flight info

Callsign EIN242
Flight time N/A
Altitude 37000
Route BEPAN4E BEPAN DCT BANBA DCT PAVLO DCT TALIG DCT KORUL DCT ASPOR DCT SOTEX
Aircraft A320/M-SDE3FGHIRWY/LB1

Departure

Time 2026-04-30 12:41
Airport Dublin Airport (EIDW)

Arrival

Time N/A
Airport Faro - Gago Coutinho International Airport (LPFR)
Time Latitude Longitude Altitude Speed Heading
2026-04-30 12:04 53.42750 -6.24816 211 ft 0 kts 357°
2026-04-30 12:11 53.42751 -6.24836 215 ft 0 kts 56°
2026-04-30 12:30 53.42738 -6.24869 211 ft 4 kts 53°
2026-04-30 12:30 53.42721 -6.24904 211 ft 4 kts 47°
2026-04-30 12:31 53.42701 -6.24934 213 ft 4 kts 28°
2026-04-30 12:31 53.42680 -6.24942 216 ft 2 kts 332°
2026-04-30 12:31 53.42678 -6.24941 211 ft 0 kts 329°
2026-04-30 12:33 53.42690 -6.24953 211 ft 9 kts 329°
2026-04-30 12:33 53.42736 -6.25004 211 ft 7 kts 322°
2026-04-30 12:33 53.42772 -6.25052 213 ft 2 kts 321°
2026-04-30 12:34 53.42794 -6.25107 211 ft 3 kts 294°
2026-04-30 12:34 53.42785 -6.25242 213 ft 15 kts 239°
2026-04-30 12:34 53.42716 -6.25374 212 ft 16 kts 228°
2026-04-30 12:34 53.42634 -6.25520 215 ft 16 kts 225°
2026-04-30 12:35 53.42547 -6.25678 211 ft 19 kts 224°
2026-04-30 12:35 53.42453 -6.25834 212 ft 18 kts 226°
2026-04-30 12:35 53.42372 -6.25972 213 ft 16 kts 225°
2026-04-30 12:35 53.42300 -6.26075 211 ft 9 kts 223°
2026-04-30 12:36 53.42271 -6.26138 215 ft 6 kts 240°
2026-04-30 12:36 53.42264 -6.26257 217 ft 14 kts 275°
2026-04-30 12:36 53.42276 -6.26457 218 ft 18 kts 275°
2026-04-30 12:36 53.42287 -6.26659 211 ft 16 kts 275°
2026-04-30 12:37 53.42297 -6.26841 211 ft 15 kts 275°
2026-04-30 12:37 53.42305 -6.27003 211 ft 13 kts 275°
2026-04-30 12:37 53.42313 -6.27147 211 ft 12 kts 275°
2026-04-30 12:37 53.42321 -6.27297 211 ft 17 kts 275°
2026-04-30 12:38 53.42332 -6.27501 211 ft 17 kts 275°
2026-04-30 12:38 53.42343 -6.27685 213 ft 15 kts 275°
2026-04-30 12:38 53.42353 -6.27861 216 ft 19 kts 275°
2026-04-30 12:38 53.42368 -6.28169 213 ft 30 kts 275°
2026-04-30 12:39 53.42390 -6.28519 211 ft 31 kts 275°
2026-04-30 12:39 53.42407 -6.28837 211 ft 24 kts 274°
2026-04-30 12:39 53.42354 -6.29063 210 ft 22 kts 197°
2026-04-30 12:39 53.42248 -6.28998 215 ft 17 kts 112°
2026-04-30 12:40 53.42234 -6.28842 214 ft 12 kts 96°
2026-04-30 12:40 53.42213 -6.28471 218 ft 66 kts 95°
2026-04-30 12:40 53.42154 -6.27336 211 ft 127 kts 95°
2026-04-30 12:40 53.42058 -6.25607 387 ft 158 kts 96°
2026-04-30 12:41 53.41962 -6.24386 793 ft 162 kts 97°
2026-04-30 12:41 53.41840 -6.22513 1483 ft 162 kts 94°
2026-04-30 12:41 53.41751 -6.20583 2082 ft 170 kts 93°
2026-04-30 12:41 53.41648 -6.18484 2413 ft 194 kts 95°
2026-04-30 12:42 53.41521 -6.16087 2780 ft 218 kts 97°
2026-04-30 12:42 53.41372 -6.13422 3320 ft 237 kts 97°
2026-04-30 12:42 53.41215 -6.10632 4173 ft 243 kts 98°
2026-04-30 12:42 53.41005 -6.06857 5312 ft 249 kts 99°
2026-04-30 12:43 53.40888 -6.04895 5869 ft 251 kts 103°
2026-04-30 12:43 53.40210 -6.02261 6636 ft 249 kts 135°
2026-04-30 12:43 53.38728 -6.00837 7409 ft 252 kts 166°
2026-04-30 12:43 53.36960 -6.00633 8217 ft 259 kts 179°
2026-04-30 12:44 53.35141 -6.00866 8911 ft 266 kts 182°
2026-04-30 12:44 53.33288 -6.01175 9116 ft 268 kts 181°
2026-04-30 12:44 53.31435 -6.01424 9157 ft 266 kts 180°
2026-04-30 12:44 53.29590 -6.01582 9165 ft 266 kts 180°
2026-04-30 12:45 53.27761 -6.02169 9242 ft 274 kts 194°
2026-04-30 12:45 53.25955 -6.03201 10045 ft 275 kts 193°
2026-04-30 12:45 53.24106 -6.04168 10639 ft 286 kts 192°
2026-04-30 12:45 53.22120 -6.05148 10865 ft 309 kts 191°
2026-04-30 12:46 53.19979 -6.06158 11081 ft 328 kts 188°
2026-04-30 12:46 53.17705 -6.06684 11647 ft 332 kts 181°
2026-04-30 12:46 53.15393 -6.07063 12352 ft 335 kts 182°
2026-04-30 12:46 53.13064 -6.07459 13071 ft 338 kts 182°
2026-04-30 12:47 53.10729 -6.08142 13746 ft 345 kts 191°
2026-04-30 12:47 53.08440 -6.09464 14391 ft 351 kts 195°
2026-04-30 12:47 53.06134 -6.10847 15024 ft 354 kts 195°
2026-04-30 12:47 53.03800 -6.12239 15634 ft 358 kts 195°
2026-04-30 12:48 53.01445 -6.13637 16260 ft 360 kts 195°
2026-04-30 12:48 52.99077 -6.15039 16868 ft 363 kts 195°
2026-04-30 12:48 52.96687 -6.16450 17467 ft 366 kts 195°
2026-04-30 12:48 52.94245 -6.17607 18011 ft 365 kts 186°
2026-04-30 12:49 52.91721 -6.18170 18586 ft 367 kts 184°
2026-04-30 12:49 52.89174 -6.18693 19040 ft 371 kts 184°
2026-04-30 12:49 52.86620 -6.19226 19143 ft 370 kts 184°
2026-04-30 12:49 52.84064 -6.19771 19155 ft 370 kts 184°
2026-04-30 12:50 52.81478 -6.20327 19156 ft 370 kts 184°
2026-04-30 12:50 52.78963 -6.20862 19154 ft 369 kts 184°
2026-04-30 12:50 52.76386 -6.21408 19155 ft 369 kts 184°
2026-04-30 12:50 52.73832 -6.21951 19156 ft 369 kts 184°
2026-04-30 12:51 52.71283 -6.22492 19146 ft 370 kts 184°
2026-04-30 12:51 52.68736 -6.23032 19147 ft 369 kts 184°
2026-04-30 12:51 52.66186 -6.23567 19146 ft 370 kts 184°
2026-04-30 12:51 52.63636 -6.24093 19146 ft 370 kts 184°
2026-04-30 12:52 52.61077 -6.24617 19146 ft 370 kts 184°
2026-04-30 12:52 52.58527 -6.25141 19146 ft 370 kts 184°
2026-04-30 12:52 52.55973 -6.25672 19148 ft 370 kts 184°
2026-04-30 12:52 52.53414 -6.26201 19146 ft 369 kts 182°
2026-04-30 12:53 52.50861 -6.26293 19275 ft 369 kts 175°
2026-04-30 12:53 52.48279 -6.26169 19843 ft 372 kts 175°
2026-04-30 12:53 52.45680 -6.26054 20361 ft 375 kts 175°
2026-04-30 12:53 52.43060 -6.25943 20876 ft 378 kts 175°
2026-04-30 12:54 52.40422 -6.25835 21351 ft 381 kts 176°
2026-04-30 12:54 52.37770 -6.25728 21788 ft 384 kts 176°
2026-04-30 12:54 52.35090 -6.25615 22213 ft 386 kts 176°
2026-04-30 12:54 52.32392 -6.25493 22630 ft 389 kts 176°
2026-04-30 12:55 52.29679 -6.25376 23033 ft 392 kts 176°
2026-04-30 12:55 52.26938 -6.25259 23420 ft 395 kts 176°
2026-04-30 12:55 52.24186 -6.25142 23786 ft 397 kts 176°
2026-04-30 12:55 52.21409 -6.25025 24156 ft 400 kts 176°
2026-04-30 12:56 52.18617 -6.24907 24519 ft 402 kts 176°
2026-04-30 12:56 52.15812 -6.24787 24870 ft 404 kts 176°
2026-04-30 12:56 52.12993 -6.24667 25218 ft 406 kts 176°
2026-04-30 12:56 52.10162 -6.24545 25559 ft 408 kts 176°
2026-04-30 12:57 52.07313 -6.24420 25875 ft 410 kts 176°
2026-04-30 12:57 52.04456 -6.24296 26194 ft 412 kts 176°
2026-04-30 12:57 52.01585 -6.24172 26524 ft 413 kts 176°
2026-04-30 12:57 51.98663 -6.24049 26839 ft 415 kts 176°
2026-04-30 12:58 51.95781 -6.23870 27128 ft 416 kts 172°
2026-04-30 12:58 51.92940 -6.23100 27413 ft 415 kts 166°
2026-04-30 12:58 51.90101 -6.22112 27694 ft 417 kts 166°
2026-04-30 12:58 51.87261 -6.21136 27959 ft 418 kts 167°
2026-04-30 12:59 51.84412 -6.20162 28209 ft 419 kts 167°
2026-04-30 12:59 51.81547 -6.19179 28451 ft 421 kts 167°
2026-04-30 12:59 51.78681 -6.18196 28700 ft 422 kts 167°
2026-04-30 12:59 51.75806 -6.17215 28941 ft 423 kts 167°
2026-04-30 13:00 51.72933 -6.16238 29253 ft 421 kts 167°
2026-04-30 13:00 51.70071 -6.15266 29568 ft 420 kts 167°
2026-04-30 13:00 51.67219 -6.14295 29902 ft 418 kts 167°
2026-04-30 13:00 51.64379 -6.13328 30224 ft 416 kts 167°
2026-04-30 13:01 51.61548 -6.12364 30530 ft 415 kts 167°
2026-04-30 13:01 51.58726 -6.11402 30835 ft 414 kts 167°
2026-04-30 13:01 51.55917 -6.10446 31129 ft 413 kts 167°
2026-04-30 13:01 51.53106 -6.09494 31429 ft 412 kts 167°
2026-04-30 13:02 51.50314 -6.08549 31714 ft 410 kts 167°
2026-04-30 13:02 51.47517 -6.07604 32009 ft 409 kts 167°
2026-04-30 13:02 51.44734 -6.06668 32303 ft 408 kts 167°
2026-04-30 13:02 51.41960 -6.05735 32585 ft 407 kts 167°
2026-04-30 13:03 51.39193 -6.04805 32871 ft 406 kts 167°
2026-04-30 13:03 51.36436 -6.03873 33156 ft 405 kts 167°
2026-04-30 13:03 51.33677 -6.02941 33416 ft 404 kts 167°
2026-04-30 13:03 51.30932 -6.02019 33671 ft 403 kts 167°
2026-04-30 13:04 51.28190 -6.01100 33942 ft 402 kts 167°
2026-04-30 13:04 51.25451 -6.00185 34192 ft 402 kts 167°
2026-04-30 13:04 51.22718 -5.99273 34420 ft 402 kts 167°
2026-04-30 13:04 51.19975 -5.98356 34600 ft 403 kts 167°
2026-04-30 13:05 51.17224 -5.97437 34757 ft 405 kts 167°
2026-04-30 13:05 51.14458 -5.96516 34931 ft 406 kts 167°
2026-04-30 13:05 51.11690 -5.95597 35110 ft 407 kts 167°
2026-04-30 13:06 51.06101 -5.93736 35476 ft 408 kts 167°
2026-04-30 13:06 51.03320 -5.92814 35628 ft 409 kts 168°
2026-04-30 13:06 51.00530 -5.91893 35793 ft 410 kts 168°
2026-04-30 13:06 50.97736 -5.90976 35964 ft 410 kts 168°
2026-04-30 13:07 50.94947 -5.90062 36124 ft 410 kts 168°
2026-04-30 13:07 50.92111 -5.89471 36265 ft 412 kts 176°
2026-04-30 13:07 50.89250 -5.89278 36402 ft 413 kts 176°
2026-04-30 13:07 50.86378 -5.89087 36527 ft 413 kts 176°
2026-04-30 13:08 50.83508 -5.88894 36729 ft 412 kts 176°
2026-04-30 13:08 50.80647 -5.88697 36970 ft 409 kts 176°
2026-04-30 13:08 50.77810 -5.88500 37038 ft 409 kts 176°
2026-04-30 13:09 50.72106 -5.88105 37046 ft 410 kts 177°
2026-04-30 13:09 50.66406 -5.87722 37045 ft 410 kts 177°
2026-04-30 13:10 50.60702 -5.87336 37048 ft 410 kts 177°
2026-04-30 13:10 50.54996 -5.86954 37039 ft 411 kts 177°
2026-04-30 13:11 50.49289 -5.86566 37038 ft 411 kts 177°
2026-04-30 13:11 50.43576 -5.86181 37033 ft 411 kts 177°
2026-04-30 13:12 50.37870 -5.85800 37032 ft 411 kts 177°
2026-04-30 13:12 50.32157 -5.85414 37030 ft 411 kts 177°
2026-04-30 13:13 50.23588 -5.84837 37032 ft 411 kts 177°
2026-04-30 13:14 50.15950 -5.84333 37031 ft 411 kts 177°
2026-04-30 13:14 50.07378 -5.83762 37032 ft 411 kts 177°
2026-04-30 13:15 49.98792 -5.83203 37037 ft 412 kts 177°
2026-04-30 13:16 49.93072 -5.82827 37037 ft 411 kts 177°
2026-04-30 13:16 49.87358 -5.82444 37032 ft 411 kts 177°
2026-04-30 13:17 49.78783 -5.81888 37032 ft 411 kts 177°
2026-04-30 13:18 49.70203 -5.81321 37031 ft 411 kts 177°
2026-04-30 13:18 49.61632 -5.80756 37026 ft 411 kts 177°
2026-04-30 13:19 49.55906 -5.80383 37025 ft 411 kts 177°
2026-04-30 13:19 49.50189 -5.80499 37023 ft 412 kts 188°
2026-04-30 13:20 49.44536 -5.81995 37020 ft 412 kts 188°
2026-04-30 13:20 49.38869 -5.83466 37018 ft 413 kts 188°
2026-04-30 13:21 49.33165 -5.84934 37017 ft 413 kts 188°
2026-04-30 13:22 49.24652 -5.87137 37017 ft 414 kts 189°
2026-04-30 13:22 49.16116 -5.89347 37020 ft 415 kts 189°
2026-04-30 13:23 49.07574 -5.91551 37019 ft 415 kts 189°
2026-04-30 13:24 48.96174 -5.94465 37017 ft 415 kts 189°
2026-04-30 13:25 48.84752 -5.97378 37012 ft 417 kts 189°
2026-04-30 13:26 48.70431 -6.01022 37015 ft 418 kts 189°
2026-04-30 13:28 48.56072 -6.04637 37031 ft 418 kts 190°
2026-04-30 13:28 48.47467 -6.06805 37035 ft 418 kts 190°
2026-04-30 13:29 48.35963 -6.09669 37036 ft 419 kts 190°
2026-04-30 13:31 48.21531 -6.13265 37044 ft 420 kts 190°
2026-04-30 13:32 48.07118 -6.16831 37047 ft 420 kts 190°
2026-04-30 13:33 47.95574 -6.19681 37047 ft 421 kts 190°
2026-04-30 13:34 47.86903 -6.21802 37050 ft 421 kts 190°
2026-04-30 13:35 47.75334 -6.24628 37056 ft 421 kts 190°
2026-04-30 13:36 47.63763 -6.27437 37061 ft 421 kts 190°
2026-04-30 13:36 47.55084 -6.29543 37071 ft 421 kts 190°
2026-04-30 13:37 47.46403 -6.31660 37084 ft 422 kts 190°
2026-04-30 13:38 47.37678 -6.33750 37095 ft 422 kts 190°
2026-04-30 13:39 47.26126 -6.36515 37072 ft 419 kts 190°
2026-04-30 13:40 47.17487 -6.38567 37071 ft 419 kts 190°
2026-04-30 13:40 47.11735 -6.39936 37073 ft 419 kts 190°
2026-04-30 13:41 47.05980 -6.41311 37073 ft 419 kts 190°
2026-04-30 13:41 47.00230 -6.42685 37073 ft 419 kts 190°
2026-04-30 13:42 46.94471 -6.44040 37079 ft 419 kts 190°
2026-04-30 13:42 46.85817 -6.46068 37083 ft 420 kts 190°
2026-04-30 13:43 46.80047 -6.47431 37084 ft 420 kts 190°
2026-04-30 13:43 46.74264 -6.48780 37087 ft 421 kts 190°
2026-04-30 13:44 46.68483 -6.50139 37086 ft 421 kts 190°
2026-04-30 13:44 46.62699 -6.51491 37086 ft 421 kts 190°
2026-04-30 13:45 46.54028 -6.53518 37085 ft 421 kts 191°
2026-04-30 13:46 46.48246 -6.54864 37084 ft 421 kts 191°
2026-04-30 13:46 46.42460 -6.56206 37083 ft 421 kts 191°
2026-04-30 13:47 46.36661 -6.57538 37083 ft 422 kts 190°
2026-04-30 13:47 46.31806 -6.58659 37088 ft 422 kts 191°
2026-04-30 13:48 46.25993 -6.60005 37103 ft 423 kts 191°
2026-04-30 13:48 46.20181 -6.61340 37097 ft 423 kts 190°
2026-04-30 13:49 46.14368 -6.62679 37106 ft 423 kts 191°
2026-04-30 13:49 46.08552 -6.64008 37103 ft 423 kts 191°
2026-04-30 13:50 46.02738 -6.65339 37103 ft 423 kts 191°
2026-04-30 13:50 45.94024 -6.67325 37105 ft 423 kts 191°
2026-04-30 13:51 45.88217 -6.68639 37105 ft 422 kts 191°
2026-04-30 13:51 45.82414 -6.69953 37099 ft 422 kts 191°
2026-04-30 13:52 45.76601 -6.71277 37091 ft 423 kts 191°
2026-04-30 13:52 45.70794 -6.72588 37097 ft 423 kts 191°
2026-04-30 13:53 45.64977 -6.73888 37101 ft 423 kts 191°
2026-04-30 13:53 45.59166 -6.75201 37108 ft 423 kts 191°
2026-04-30 13:54 45.53355 -6.76511 37110 ft 423 kts 191°
2026-04-30 13:54 45.47551 -6.77816 37111 ft 422 kts 191°
2026-04-30 13:55 45.41748 -6.79109 37111 ft 422 kts 191°
2026-04-30 13:55 45.35934 -6.80401 37106 ft 422 kts 191°
2026-04-30 13:56 45.30097 -6.81705 37100 ft 421 kts 191°
2026-04-30 13:56 45.24301 -6.82986 37100 ft 422 kts 191°
2026-04-30 13:57 45.18501 -6.84267 37100 ft 422 kts 192°
2026-04-30 13:57 45.12704 -6.85556 37100 ft 421 kts 192°
2026-04-30 13:58 45.04013 -6.87485 37096 ft 422 kts 192°
2026-04-30 13:59 44.98214 -6.88754 37104 ft 422 kts 192°
2026-04-30 13:59 44.92416 -6.90021 37105 ft 421 kts 192°
2026-04-30 14:00 44.86624 -6.91284 37105 ft 421 kts 192°
2026-04-30 14:00 44.78127 -6.94166 37102 ft 418 kts 199°
2026-04-30 14:01 44.72531 -6.96430 37109 ft 419 kts 199°
2026-04-30 14:01 44.66931 -6.98685 37102 ft 419 kts 199°
2026-04-30 14:02 44.61330 -7.00940 37109 ft 419 kts 199°
2026-04-30 14:02 44.55724 -7.03185 37112 ft 419 kts 199°
2026-04-30 14:03 44.50118 -7.05425 37110 ft 418 kts 199°
2026-04-30 14:03 44.44516 -7.07668 37110 ft 418 kts 199°
2026-04-30 14:04 44.38914 -7.09906 37111 ft 419 kts 199°
2026-04-30 14:04 44.33307 -7.12134 37112 ft 419 kts 199°
2026-04-30 14:05 44.27665 -7.14368 37113 ft 419 kts 199°
2026-04-30 14:05 44.22060 -7.16583 37115 ft 418 kts 199°
2026-04-30 14:06 44.13664 -7.19929 37116 ft 418 kts 199°
2026-04-30 14:07 44.05264 -7.23243 37119 ft 418 kts 199°
2026-04-30 14:08 43.96874 -7.26536 37121 ft 417 kts 199°
2026-04-30 14:08 43.88494 -7.29828 37114 ft 417 kts 199°
2026-04-30 14:09 43.82907 -7.32022 37120 ft 417 kts 199°
2026-04-30 14:10 43.74523 -7.35293 37112 ft 417 kts 199°
2026-04-30 14:10 43.68937 -7.37466 37112 ft 417 kts 199°
2026-04-30 14:11 43.63355 -7.39634 37109 ft 416 kts 199°
2026-04-30 14:11 43.57778 -7.41798 37113 ft 416 kts 199°
2026-04-30 14:12 43.52200 -7.43960 37106 ft 417 kts 199°
2026-04-30 14:12 43.46584 -7.46131 37107 ft 417 kts 199°
2026-04-30 14:13 43.41003 -7.48282 37111 ft 417 kts 199°
2026-04-30 14:13 43.35419 -7.50437 37116 ft 416 kts 199°
2026-04-30 14:14 43.29843 -7.52584 37117 ft 416 kts 199°
2026-04-30 14:14 43.24262 -7.54722 37106 ft 416 kts 199°
2026-04-30 14:15 43.18684 -7.56846 37110 ft 416 kts 199°
2026-04-30 14:15 43.13113 -7.58969 37114 ft 415 kts 199°
2026-04-30 14:16 43.07540 -7.61099 37108 ft 416 kts 199°
2026-04-30 14:16 43.01966 -7.63224 37100 ft 417 kts 199°
2026-04-30 14:17 42.96356 -7.65364 37076 ft 420 kts 199°
2026-04-30 14:17 42.90710 -7.67503 37080 ft 422 kts 198°
2026-04-30 14:18 42.85031 -7.69644 37083 ft 424 kts 198°
2026-04-30 14:18 42.76483 -7.72874 37096 ft 425 kts 198°
2026-04-30 14:19 42.67920 -7.76104 37099 ft 426 kts 198°
2026-04-30 14:20 42.63125 -7.77898 37099 ft 426 kts 198°
2026-04-30 14:20 42.54541 -7.81106 37101 ft 427 kts 198°
2026-04-30 14:21 42.48818 -7.83253 37104 ft 427 kts 198°
2026-04-30 14:22 42.40225 -7.86460 37110 ft 427 kts 198°
2026-04-30 14:22 42.31632 -7.89657 37114 ft 427 kts 198°
2026-04-30 14:23 42.20169 -7.93902 37122 ft 427 kts 198°
2026-04-30 14:24 42.11566 -7.97083 37116 ft 427 kts 198°
2026-04-30 14:25 42.00101 -8.01306 37119 ft 427 kts 198°
2026-04-30 14:26 41.91499 -8.04470 37122 ft 427 kts 198°
2026-04-30 14:27 41.82893 -8.07602 37119 ft 428 kts 195°
2026-04-30 14:27 41.76927 -8.08334 37117 ft 433 kts 185°
2026-04-30 14:28 41.67888 -8.08689 37115 ft 433 kts 185°
2026-04-30 14:28 41.61867 -8.08933 37116 ft 433 kts 185°
2026-04-30 14:29 41.49798 -8.09432 37117 ft 433 kts 185°
2026-04-30 14:31 41.34715 -8.10054 37114 ft 433 kts 185°
2026-04-30 14:31 41.25643 -8.10420 37108 ft 433 kts 185°
2026-04-30 14:32 41.16609 -8.10790 37109 ft 433 kts 185°
2026-04-30 14:33 41.10591 -8.11033 37110 ft 433 kts 185°
2026-04-30 14:33 41.01561 -8.11398 37109 ft 433 kts 185°
2026-04-30 14:34 40.95541 -8.11647 37107 ft 433 kts 185°
2026-04-30 14:34 40.89517 -8.11885 37109 ft 433 kts 185°
2026-04-30 14:35 40.80486 -8.12248 37108 ft 433 kts 185°
2026-04-30 14:36 40.74468 -8.12496 37110 ft 433 kts 185°
2026-04-30 14:36 40.68442 -8.12738 37113 ft 433 kts 185°
2026-04-30 14:37 40.62410 -8.12983 37115 ft 433 kts 185°
2026-04-30 14:37 40.56380 -8.13223 37123 ft 434 kts 185°
2026-04-30 14:38 40.50345 -8.13456 37119 ft 434 kts 185°
2026-04-30 14:38 40.44309 -8.13701 37121 ft 434 kts 185°
2026-04-30 14:39 40.38275 -8.13946 37123 ft 434 kts 185°
2026-04-30 14:39 40.32240 -8.14181 37124 ft 434 kts 185°
2026-04-30 14:40 40.23142 -8.14539 37124 ft 434 kts 185°
2026-04-30 14:40 40.17107 -8.14784 37126 ft 434 kts 185°
2026-04-30 14:41 40.11069 -8.15026 37126 ft 434 kts 185°
2026-04-30 14:41 40.05037 -8.15263 37124 ft 434 kts 185°
2026-04-30 14:42 39.98992 -8.15492 37126 ft 434 kts 185°
2026-04-30 14:42 39.92959 -8.15732 37127 ft 434 kts 185°
2026-04-30 14:43 39.86914 -8.15967 37127 ft 434 kts 185°
2026-04-30 14:43 39.80878 -8.16203 37127 ft 434 kts 185°
2026-04-30 14:44 39.74842 -8.16438 37127 ft 434 kts 185°
2026-04-30 14:44 39.68803 -8.16674 37128 ft 434 kts 185°
2026-04-30 14:45 39.62755 -8.16915 37127 ft 434 kts 185°
2026-04-30 14:45 39.56720 -8.17156 37127 ft 434 kts 185°
2026-04-30 14:46 39.50676 -8.17388 37127 ft 434 kts 185°
2026-04-30 14:46 39.45614 -8.17582 37127 ft 434 kts 185°
2026-04-30 14:47 39.38600 -8.17852 37128 ft 434 kts 185°
2026-04-30 14:47 39.32557 -8.18084 37127 ft 434 kts 185°
2026-04-30 14:48 39.26522 -8.18318 37127 ft 434 kts 185°
2026-04-30 14:48 39.20441 -8.18555 37126 ft 434 kts 185°
2026-04-30 14:49 39.14403 -8.18781 37126 ft 434 kts 185°
2026-04-30 14:49 39.08366 -8.19010 37126 ft 434 kts 185°
2026-04-30 14:50 38.99307 -8.19360 37126 ft 434 kts 185°
2026-04-30 14:51 38.90251 -8.19701 37125 ft 434 kts 185°
2026-04-30 14:52 38.81200 -8.20043 37125 ft 434 kts 185°
2026-04-30 14:52 38.72145 -8.20391 37124 ft 434 kts 185°
2026-04-30 14:53 38.64114 -8.20698 37124 ft 434 kts 185°
2026-04-30 14:54 38.52005 -8.21154 36948 ft 434 kts 185°
2026-04-30 14:55 38.45983 -8.21381 36449 ft 433 kts 185°
2026-04-30 14:55 38.42974 -8.21494 36200 ft 433 kts 185°
2026-04-30 14:55 38.36952 -8.21523 35700 ft 437 kts 176°
2026-04-30 14:56 38.31155 -8.18979 35200 ft 452 kts 152°
2026-04-30 14:56 38.26618 -8.13333 34699 ft 468 kts 126°
2026-04-30 14:57 38.25138 -8.09608 34447 ft 475 kts 116°
2026-04-30 14:57 38.22549 -8.01863 33962 ft 477 kts 117°
2026-04-30 14:58 38.19936 -7.94109 33456 ft 478 kts 117°
2026-04-30 14:58 38.18621 -7.90219 33205 ft 478 kts 117°
2026-04-30 14:58 38.15985 -7.82434 31634 ft 485 kts 117°
2026-04-30 14:59 38.13277 -7.74463 29028 ft 496 kts 117°
2026-04-30 15:00 38.06999 -7.64546 25562 ft 471 kts 153°
2026-04-30 15:00 38.01111 -7.61699 23997 ft 441 kts 175°
2026-04-30 15:01 37.95133 -7.61462 22571 ft 423 kts 184°
2026-04-30 15:01 37.92200 -7.61469 21889 ft 418 kts 184°
2026-04-30 15:01 37.86462 -7.61464 20617 ft 407 kts 184°
2026-04-30 15:02 37.83648 -7.61458 20010 ft 402 kts 184°
2026-04-30 15:02 37.80876 -7.61453 19439 ft 396 kts 184°
2026-04-30 15:03 37.72765 -7.61454 17842 ft 381 kts 184°
2026-04-30 15:03 37.67524 -7.61454 16835 ft 372 kts 184°
2026-04-30 15:04 37.62407 -7.61452 15834 ft 364 kts 185°
2026-04-30 15:04 37.54906 -7.61464 14284 ft 353 kts 185°
2026-04-30 15:05 37.47631 -7.61473 12631 ft 344 kts 185°
2026-04-30 15:06 37.42881 -7.61473 11485 ft 339 kts 185°
2026-04-30 15:06 37.38271 -7.61470 10923 ft 316 kts 185°
2026-04-30 15:07 37.34085 -7.61456 10725 ft 287 kts 185°
2026-04-30 15:07 37.30246 -7.61452 10484 ft 265 kts 186°
2026-04-30 15:08 37.26702 -7.61453 10258 ft 244 kts 186°
2026-04-30 15:08 37.21874 -7.61457 9614 ft 227 kts 187°
2026-04-30 15:09 37.18735 -7.61465 8959 ft 225 kts 187°
2026-04-30 15:09 37.15449 -7.61486 7718 ft 246 kts 187°
2026-04-30 15:10 37.12024 -7.61488 6474 ft 243 kts 186°
2026-04-30 15:11 37.06012 -7.62726 5112 ft 182 kts 209°
2026-04-30 15:11 37.03794 -7.63941 5030 ft 171 kts 210°
2026-04-30 15:12 37.00545 -7.65733 4833 ft 169 kts 210°
2026-04-30 15:13 36.98487 -7.67123 4492 ft 167 kts 228°
2026-04-30 15:14 36.98012 -7.72584 3691 ft 168 kts 272°
2026-04-30 15:14 36.98616 -7.76825 3051 ft 159 kts 273°
2026-04-30 15:16 36.99528 -7.83187 2045 ft 142 kts 281°
2026-04-30 15:17 37.00247 -7.88205 1275 ft 147 kts 281°
2026-04-30 15:18 37.01152 -7.94492 258 ft 147 kts 280°
2026-04-30 15:19 37.01631 -7.97889 23 ft 60 kts 279°